Regional Weather Roundup
Issued by NWS

Home | Current Version | Previous Version | Graphics & Text | Print | Product List | Glossary Off
Versions: 1 2 3 4 5 6 7 8 9 10 11 12 13 14 15 16 17 18 19 20 21 22 23 24 25 26 27 28 29 30 31 32 33 34 35 36 37 38 39 40 41 42 43 44 45 46 47 48 49 50

000
ASUS43 KMPX 230001
RWRMN
WEATHER ROUNDUP FOR MINNESOTA
NATIONAL WEATHER SERVICE TWIN CITIES/CHANHASSEN MN
700 PM CDT TUE MAY 22 2018


NOTE: "FAIR" INDICATES FEW OR NO CLOUDS BELOW 12,000 FEET WITH NO
SIGNIFICANT WEATHER AND/OR OBSTRUCTIONS TO VISIBILITY. N/A MEANS
CURRENT SKY AND/OR WEATHER CONDITIONS ARE NOT AVAILABLE.

MNZ060>063-068>070-230100-
   Twin Cities Metro

CITY           SKY/WX    TMP DP  RH WIND       PRES   REMARKS
TWIN CITIES    FAIR      74  58  57 SE8       30.02S
6HR MIN TEMP:  69; 6HR MAX TEMP:  76;

ST PAUL        FAIR      73  58  59 SE6       30.02F
CRYSTAL        FAIR      76  54  46 VRB5      30.00F
BLAINE         MOSUNNY   75  55  50 SE5       30.02F
LAKEVILLE      FAIR      73  57  56 E9        30.02S
EDEN PRAIRIE   FAIR      76  56  49 E8        30.00F
6HR MIN TEMP:  68; 6HR MAX TEMP:  77;

SOUTH ST PAUL  FAIR      74  55  52 S3        30.02S
LAKE ELMO      FAIR      72  57  60 SE3       30.04F
$$
MNZ001>005-007-008-013>017-022>024-027-028-230100-
   Northwest Minnesota

CITY           SKY/WX    TMP DP  RH WIND       PRES   REMARKS
BEMIDJI        PTSUNNY   75  55  49 E9        30.00S
HALLOCK        FAIR      81  52  36 SE9       29.93S
ROSEAU         FAIR      79  55  44 CALM      29.97S
WARROAD        FAIR      70  55  60 E3        29.98S
THIEF RVR FALL FAIR      76  54  46 SE5       29.98S
CROOKSTON      FAIR      79  54  41 SE9       29.95S
FOSSTON        FAIR      77  52  41 SW6       29.99S
DETROIT LAKES  FAIR      73  54  49 SE6       30.01R
MOORHEAD       FAIR      81  52  36 E8        29.95S
PARK RAPIDS    FAIR      74  55  51 S6        30.00F
MAHNOMEN       FAIR      74  55  50 SE7       29.98S
$$
MNZ006-009>011-018-025>026-230100-
   North Central Minnesota

CITY           SKY/WX    TMP DP  RH WIND       PRES   REMARKS
BAUDETTE       FAIR      77  46  33 E3        29.98S
FLAG ISLAND    FAIR      73  46  38 SE6       29.97S
INTL FALLS     FAIR      76  45  33 E7        29.98R
6HR MIN TEMP:  75; 6HR MAX TEMP:  81;

WASKISH          N/A     73  55  53 W5        30.00R
BIG FORK       FAIR      75  54  46 SW6       30.00R
LONGVILLE      FAIR      73  54  49 SW5       30.02S
GRAND RAPIDS   FAIR      74  54  49 SW6       30.03R
CRANE LAKE     FAIR      75  39  27 N5        30.00R
ORR            FAIR      77  39  25 CALM      29.97R
COOK           FAIR      79  48  34 SW7       29.99S
WALKER         FAIR      72  55  54 E3        30.01S
$$
MNZ012-019>021-037-230100-
   Northeast Minnesota

CITY           SKY/WX    TMP DP  RH WIND       PRES   REMARKS
DULUTH         FAIR      76  54  46 SW10      30.01R
6HR MIN TEMP:  71; 6HR MAX TEMP:  79;

ELY            FAIR      77  36  22 W7        29.99S
HIBBING        FAIR      74  51  44 W7        30.00R
EVELETH        FAIR      77  52  41 W6        30.01R
DULUTH HARBOR  FAIR      77  57  50 SW8       29.99S
TWO HARBORS    FAIR      79  59  50 S9        29.98S
SILVER BAY     FAIR      75  54  46 S6        29.98R
GRAND MARAIS     N/A     45  38  76 CALM      29.99R
G MARAIS ARPRT FAIR      70  28  21 S6        30.02S
$$
MNZ029>031-032-039>041-046>048-054>057-064-230100-
   West Central Minnesota

CITY           SKY/WX    TMP DP  RH WIND       PRES   REMARKS
FERGUS FALLS   FAIR      79  55  44 SE12      29.92S
WHEATON        SUNNY     81  46  30 SE5       29.96S
MORRIS         SUNNY     81  54  39 E10       29.96S
ALEXANDRIA     FAIR      78  56  46 SE13      30.01S
ELBOW LAKE     FAIR      76  56  49 E10       29.97F
WADENA         FAIR      72  55  56 SE7       30.00S
GLENWOOD       FAIR      75  55  50 E8        30.01S
APPLETON       SUNNY     81  54  39 E7        29.95S
BENSON         SUNNY     77  55  47 S3        29.98S
ORTONVILLE     SUNNY     81  55  41 E13       29.94F
MADISON        SUNNY     82  55  39 SE7       29.95S
WILLMAR        FAIR      75  57  53 SE8       30.01S
$$
MNZ033>034-036-042>043-049>051-058-059-230100-
   Central Minnesota

CITY           SKY/WX    TMP DP  RH WIND       PRES   REMARKS
ST CLOUD       FAIR      73  55  53 S5        30.01F
6HR MIN TEMP:  69; 6HR MAX TEMP:  75;

SAUK CENTRE    FAIR      73  57  57 E8        30.02S
PAYNESVILLE    FAIR      74  58  57 SE3       30.01S
PINE RIVER     FAIR      72  54  53 S3        30.05S
BRAINERD       FAIR      75  53  46 S8        30.02F
STAPLES        PTSUNNY   72  54  53 S5        30.02S
LONG PRAIRIE   FAIR      72  55  56 SE6       30.03S
LITTLE FALLS   CLOUDY    72  54  53 S8        30.03R
LITCHFIELD     FAIR      77  61  57 E6        30.00F
BUFFALO        FAIR      74  55  51 SE5       30.02S
MAPLE LAKE     FAIR      76  58  55 CALM      30.02S
HUTCHINSON     FAIR      78  59  51 E3        30.00F
$$
MNZ037-044-045-052-053-230100-
   East Central Minnesota

CITY           SKY/WX    TMP DP  RH WIND       PRES   REMARKS
PRINCETON      CLOUDY    75  57  53 SE5       30.02S
MORA           FAIR      70  54  56 CALM      30.05S
CAMBRIDGE      PTSUNNY   75  57  53 S7        30.03S
RUSH CITY      FAIR      72  55  54 S5        30.03S
MOOSE LAKE     FAIR      72  54  53 S6        30.01S
HINCKLEY       MOCLDY    72  57  60 CALM      30.03S
CLOQUET        CLOUDY    73  48  40 SW8       30.02R
MCGREGOR       PTSUNNY   73  54  49 SW5       30.03S
$$
MNZ071>073-080-081-089-090-097-098-230100-
   Southwest Minnesota

CITY           SKY/WX    TMP DP  RH WIND       PRES   REMARKS
MONTEVIDEO     SUNNY     81  57  44 S10       29.97S
GRANITE FALLS  SUNNY     81  60  48 E12       29.98S
CANBY          MOSUNNY   81  56  41 SE12      29.95S
MARSHALL       MOSUNNY   79  59  50 SE13      29.96S
REDWOOD FALLS  SUNNY     77  58  51 SE7       29.97F
OLIVIA         SUNNY     77  59  53 SE3       29.99S
PIPESTONE      SUNNY     79  63  57 SE10G16   29.96S
WINDOM         SUNNY     79  54  41 SE8       29.98S
WORTHINGTON    PTSUNNY   78  62  57 SE12      29.98F
JACKSON        CLOUDY    77  61  57 SE7       30.00S
TRACY          MOSUNNY   79  62  56 SE12G17   29.97S
SLAYTON        MOSUNNY   78  61  54 SE12      29.99S
$$
MNZ065>067-074>077-082>085-091>093-230100-
   South Central Minnesota

CITY           SKY/WX    TMP DP  RH WIND       PRES   REMARKS
MANKATO        FAIR      78  57  48 SE8       30.00S
NEW ULM        SUNNY     79  52  38 CALM      29.98S
ST JAMES       MOSUNNY   81  57  44 S6        29.99S
FAIRMONT       MOSUNNY   78  60  53 S9        29.99F
GLENCOE        FAIR      79  56  46 E5        29.99S HAZE
FARIBAULT      FAIR      75  57  53 CALM      30.02S
OWATONNA       FAIR      75  61  60 E8        30.02S
WASECA         FAIR      77  55  47 CALM      30.02S
ALBERT LEA     FAIR      77  52  41 SE3       30.01F
$$
MNZ078>079-086>088-094>096-230100-
   Southeast Minnesota

CITY           SKY/WX    TMP DP  RH WIND       PRES   REMARKS
ROCHESTER      FAIR      70  60  70 E7        30.04S
6HR MIN TEMP:  65; 6HR MAX TEMP:  73;

RED WING       FAIR      72  52  49 S5        30.03S
STANTON        FAIR      75  57  53 SE6       30.01S
DODGE CENTER   FAIR      73  57  56 E7        30.04S
WINONA         FAIR      68  59  73 E3        30.03F
AUSTIN         FAIR      77  55  47 NE5       30.01F
PRESTON        FAIR      68  58  68 E6        30.06S
$$
ABBREVIATIONS USED IN REMARKS
   TC - TEMPERATURES IN CELSIUS
  WCI - WIND CHILL INDEX
   HX - HEAT INDEX
  VSB - VISIBILITY
$$




USA.gov is the U.S. government's official web portal to all federal, state and local government web resources and services.